Regional Weather Roundup
Issued by NWS

Home | Current Version | Previous Version | Graphics & Text | Print | Product List | Glossary On
Versions: 1 2 3 4 5 6 7 8 9 10 11 12 13 14 15 16 17 18 19 20 21 22 23 24 25 26 27 28 29 30 31 32 33 34 35 36 37 38 39 40 41 42 43 44 45 46 47 48 49 50
985
ASUS43 KDMX 282203
RWRIA

WEATHER ROUNDUP FOR IOWA
NATIONAL WEATHER SERVICE DES MOINES IA
500 PM CDT SAT MAY 28 2016

NOTE: "FAIR" INDICATES FEW OR NO CLOUDS BELOW 12,000 FEET WITH NO
SIGNIFICANT WEATHER AND/OR OBSTRUCTIONS TO VISIBILITY.

* - THESE STATIONS ARE NOT NWS STATIONS...THUS NOT UNDER NWS
QUALITY CONTROL.  THEY ALSO DO NOT REPORT WEATHER SUCH
AS PRECIPITATION OR FOG.

IAZ001>003-012>014-020>022-031>034-043>046-282300-
   NORTHWEST IOWA

CITY           SKY/WX    TMP DP  RH WIND       PRES   REMARKS
CARROLL *      PTSUNNY   72  59  64 SW21G29   29.77S
CHEROKEE *     CLOUDY    70  59  68 SW13      29.74S
DENISON *      PTSUNNY   68  59  73 W26       29.76R
LE MARS *      PTSUNNY   70  61  73 W16       29.76R
ORANGE CITY *  MOSUNNY   70  61  73 W13       29.75S
SHELDON *      MOSUNNY   73  59  60 NW8       29.73S
SIOUX CITY     LGT RAIN  69  62  78 NW13G20   29.76R
SPENCER        CLOUDY    66  61  84 NE14      29.75R
STORM LAKE *     N/A     72  55  56 S18       29.75S
$$

IAZ055>058-069>071-079>083-090>094-282300-
   SOUTHWEST IOWA

CITY           SKY/WX    TMP DP  RH WIND       PRES   REMARKS
ATLANTIC *     MOSUNNY   72  57  60 SW23      29.81R
AUDUBON *      MOSUNNY   72  61  68 SW18      29.81R
CLARINDA *       N/A     73  59  60 MISG      29.86R
COUNCIL BLFS *   N/A     70  55  60 W15G25    29.83R
CRESTON *      PTSUNNY   73  59  60 SW15G26   29.85R
HARLAN  *      PTSUNNY   70  57  64 W16G24    29.83R
LAMONI         LGT RAIN  72  61  68 SW17G23   29.86R
RED OAK *      PTSUNNY   73  59  60 SW12G21   29.83S
SHENANDOAH *   PTSUNNY   73  61  64 W15       29.85R
$$

IAZ047>049-059>061-072>074-084-282300-
   CENTRAL IOWA

CITY           SKY/WX    TMP DP  RH WIND       PRES   REMARKS
AMES           LGT RAIN  69  64  84 S13       29.78F
ANKENY *       MOSUNNY   72  63  73 SW14G24   29.79S
BOONE *        PTSUNNY   70  64  83 S13G21    29.77R
CHARITON *     MOSUNNY   72  61  68 SW12G21   29.84S
DES MOINES     MOSUNNY   73  61  65 SW16      29.79S
GRINNELL*      PTSUNNY   70  61  73 SW22G28   29.82R
KNOXVILLE *    SUNNY     73  61  64 SW18G25   29.81R
MARSHALLTOWN   PTSUNNY   71  63  75 SW15      29.78S
NEWTON *       MOSUNNY   73  64  73 SW18      29.80S
PELLA *        MOSUNNY   74  60  61 SW16G25   29.83S
PERRY *        CLOUDY    72  63  73 SW17      29.79S
$$

IAZ004>006-015-016-023>025-035-036-282300-
   NORTH CENTRAL IOWA

CITY           SKY/WX    TMP DP  RH WIND       PRES   REMARKS
ALGONA *       LGT RAIN  68  63  83 SW7G18    29.75R
CLARION *      PTSUNNY   70  63  78 SW18G28   29.76R
ESTHERVILLE    TSTM      62  61  96 E8        29.78R
FORT DODGE *   CLOUDY    73  57  56 SW12G18   29.76S
MASON CITY     CLOUDY    68  61  78 CALM      29.78F
FOREST CITY *  MOSUNNY   66  63  88 CALM      29.76F
WEBSTER CITY * PTSUNNY   73  63  68 S14       29.74F
IOWA FALLS *   PTSUNNY   73  66  78 S9        29.78F
$$

IAZ007>011-017>019-026>030-037>042-050>054-066-282300-
   NORTHEAST IOWA

CITY           SKY/WX    TMP DP  RH WIND       PRES   REMARKS
CEDAR RAPIDS   MOSUNNY   77  64  64 SW17G31   29.79R
CHARLES CITY * PTSUNNY   72  64  78 S14       29.77S
CLINTON *      TSTM      70  66  88 W32G41    29.82R FOG
DECORAH *      LGT RAIN  68  66  94 VRB7      29.78R
DUBUQUE        CLOUDY    71  66  84 S5        29.80F
MONTICELLO *   CLOUDY    77  68  73 SW12      29.79R
OELWEIN *      CLOUDY    68  66  94 SW12      29.80F
WATERLOO       CLOUDY    70  61  73 SW10      29.77F
$$

IAZ064-065-067-068-078-282300-
   EAST CENTRAL IOWA

CITY           SKY/WX    TMP DP  RH WIND       PRES   REMARKS
DAVENPORT      CLOUDY    70  63  78 S24       29.84R THUNDER
IOWA CITY      MOSUNNY   78  59  51 SW20G33   29.81R
MT. PLEASANT * SUNNY     81  61  50 SW21G32   29.83R HX  81
MUSCATINE *    CLOUDY    81  61  50 SW20G35   29.82R HX  81
QUAD CITIES    HVY RAIN  70  65  84 W10       29.81R
$$

IAZ062-063-075>077-085>089-095>099-282300-
   SOUTHEAST IOWA

CITY           SKY/WX    TMP DP  RH WIND       PRES   REMARKS
BURLINGTON     MOSUNNY   79  63  57 SW23      29.83S HX  80
FAIRFIELD *      N/A    N/A N/A N/A MISG        N/A
FORT MADISON * CLOUDY    79  61  53 SW17G30   29.85R HX  80
KEOKUK *       SUNNY     81  63  54 SW14G29   29.84R HX  82
OSKALOOSA *    PTSUNNY   76  60  57 SW22G28   29.83R
OTTUMWA        CLOUDY    73  60  63 SW16G23   29.83R
WASHINGTON *   SUNNY     79 -33   1 SW22G33   29.82S
$$

ABBREVIATIONS USED IN REMARKS
   TC - TEMPERATURES IN CELSIUS
  WCI - WIND CHILL INDEX
   HX - HEAT INDEX
  VSB - VISIBILITY
$$





USA.gov is the U.S. government's official web portal to all federal, state and local government web resources and services.